Year,Month,Day,Hour,Minute,Value (Times are PST for temperature in C)
2015,08,22,00,00,16.20
2015,08,22,00,01,16.20
2015,08,22,00,02,16.20
2015,08,22,00,03,16.20
2015,08,22,00,04,16.20
2015,08,22,00,05,16.20
2015,08,22,00,06,16.20
2015,08,22,00,07,16.20
2015,08,22,00,08,16.20
2015,08,22,00,09,16.20
2015,08,22,00,10,16.20
2015,08,22,00,11,16.20
2015,08,22,00,12,16.20
2015,08,22,00,13,16.20
2015,08,22,00,14,16.20
2015,08,22,00,15,16.20
2015,08,22,00,16,16.30
2015,08,22,00,17,16.30
2015,08,22,00,18,16.30
2015,08,22,00,19,16.30
2015,08,22,00,20,16.30
2015,08,22,00,21,16.30
2015,08,22,00,22,16.30
2015,08,22,00,23,16.30
2015,08,22,00,24,16.30
2015,08,22,00,25,16.30
2015,08,22,00,26,16.30
2015,08,22,00,27,16.30
2015,08,22,00,28,16.30
2015,08,22,00,29,16.30
2015,08,22,00,30,16.30
2015,08,22,00,31,16.30
2015,08,22,00,32,16.30
2015,08,22,00,33,16.40
2015,08,22,00,34,16.40
2015,08,22,00,35,16.40
2015,08,22,00,36,16.40
2015,08,22,00,37,16.40
2015,08,22,00,38,16.40
2015,08,22,00,39,16.40
2015,08,22,00,40,16.40
2015,08,22,00,41,16.40
2015,08,22,00,42,16.30
2015,08,22,00,43,16.30
2015,08,22,00,44,16.30
2015,08,22,00,45,16.30
2015,08,22,00,46,16.30
2015,08,22,00,47,16.30
2015,08,22,00,48,16.30
2015,08,22,00,49,16.30
2015,08,22,00,50,16.30
2015,08,22,00,51,16.30
2015,08,22,00,52,16.30
2015,08,22,00,53,16.30
2015,08,22,00,54,16.30
2015,08,22,00,55,16.30
2015,08,22,00,56,16.30
2015,08,22,00,57,16.30
2015,08,22,00,58,16.30
2015,08,22,00,59,16.30
2015,08,22,01,00,16.30
2015,08,22,01,01,16.30
2015,08,22,01,02,16.30
2015,08,22,01,03,16.30
2015,08,22,01,04,16.30
2015,08,22,01,05,16.30
2015,08,22,01,06,16.40
2015,08,22,01,07,16.40
2015,08,22,01,08,16.40
2015,08,22,01,09,16.40
2015,08,22,01,10,16.40
2015,08,22,01,11,16.40
2015,08,22,01,12,16.40
2015,08,22,01,13,16.50
2015,08,22,01,14,16.50
2015,08,22,01,15,16.50
2015,08,22,01,16,16.50
2015,08,22,01,17,16.50
2015,08,22,01,18,16.60
2015,08,22,01,19,16.60
2015,08,22,01,20,16.60
2015,08,22,01,21,16.60
2015,08,22,01,22,16.60
2015,08,22,01,23,16.60
2015,08,22,01,24,16.60
2015,08,22,01,25,16.60
2015,08,22,01,26,16.60
2015,08,22,01,27,16.60
2015,08,22,01,28,16.60
2015,08,22,01,29,16.60
2015,08,22,01,30,16.60
2015,08,22,01,31,16.60
2015,08,22,01,32,16.60
2015,08,22,01,33,16.60
2015,08,22,01,34,16.60
2015,08,22,01,35,16.60
2015,08,22,01,36,16.60
2015,08,22,01,37,16.60
2015,08,22,01,38,16.60
2015,08,22,01,39,16.60
2015,08,22,01,40,16.60
2015,08,22,01,41,16.60
2015,08,22,01,42,16.60
2015,08,22,01,43,16.60
2015,08,22,01,44,16.60
2015,08,22,01,45,16.60
2015,08,22,01,46,16.60
2015,08,22,01,47,16.60
2015,08,22,01,48,16.60
2015,08,22,01,49,16.60
2015,08,22,01,50,16.60
2015,08,22,01,51,16.60
2015,08,22,01,52,16.60
2015,08,22,01,53,16.60
2015,08,22,01,54,16.60
2015,08,22,01,55,16.60
2015,08,22,01,56,16.60
2015,08,22,01,57,16.60
2015,08,22,01,58,16.60
2015,08,22,01,59,16.60
2015,08,22,02,00,16.60
2015,08,22,02,01,16.60
2015,08,22,02,02,16.60
2015,08,22,02,03,16.60
2015,08,22,02,04,16.60
2015,08,22,02,05,16.60
2015,08,22,02,06,16.60
2015,08,22,02,07,16.60
2015,08,22,02,08,16.60
2015,08,22,02,09,16.60
2015,08,22,02,10,16.60
2015,08,22,02,11,16.60
2015,08,22,02,12,16.60
2015,08,22,02,13,16.60
2015,08,22,02,14,16.60
2015,08,22,02,15,16.60
2015,08,22,02,16,16.60
2015,08,22,02,17,16.60
2015,08,22,02,18,16.60
2015,08,22,02,19,16.60
2015,08,22,02,20,16.60
2015,08,22,02,21,16.60
2015,08,22,02,22,16.60
2015,08,22,02,23,16.70
2015,08,22,02,24,16.70
2015,08,22,02,25,16.70
2015,08,22,02,26,16.70
2015,08,22,02,27,16.70
2015,08,22,02,28,16.70
2015,08,22,02,29,16.70
2015,08,22,02,30,16.70
2015,08,22,02,31,16.70
2015,08,22,02,32,16.70
2015,08,22,02,33,16.70
2015,08,22,02,34,16.70
2015,08,22,02,35,16.70
2015,08,22,02,36,16.70
2015,08,22,02,37,16.70
2015,08,22,02,38,16.60
2015,08,22,02,39,16.60
2015,08,22,02,40,16.60
2015,08,22,02,41,16.50
2015,08,22,02,42,16.40
2015,08,22,02,43,16.40
2015,08,22,02,44,16.30
2015,08,22,02,45,16.20
2015,08,22,02,46,16.20
2015,08,22,02,47,16.10
2015,08,22,02,48,16.00
2015,08,22,02,49,15.90
2015,08,22,02,50,15.80
2015,08,22,02,51,15.70
2015,08,22,02,52,15.60
2015,08,22,02,53,15.50
2015,08,22,02,54,15.40
2015,08,22,02,55,15.30
2015,08,22,02,56,15.20
2015,08,22,02,57,15.10
2015,08,22,02,58,15.00
2015,08,22,02,59,14.90
2015,08,22,03,00,14.80
2015,08,22,03,01,14.70
2015,08,22,03,02,14.60
2015,08,22,03,03,14.50
2015,08,22,03,04,14.40
2015,08,22,03,05,14.30
2015,08,22,03,06,14.30
2015,08,22,03,07,14.20
2015,08,22,03,08,14.10
2015,08,22,03,09,14.10
2015,08,22,03,10,14.00
2015,08,22,03,11,13.90
2015,08,22,03,12,13.90
2015,08,22,03,13,13.90
2015,08,22,03,14,13.80
2015,08,22,03,15,13.80
2015,08,22,03,16,13.80
2015,08,22,03,17,13.80
2015,08,22,03,18,13.80
2015,08,22,03,19,13.70
2015,08,22,03,20,13.80
2015,08,22,03,21,13.80
2015,08,22,03,22,13.80
2015,08,22,03,23,13.80
2015,08,22,03,24,13.80
2015,08,22,03,25,13.80
2015,08,22,03,26,13.80
2015,08,22,03,27,13.90
2015,08,22,03,28,13.90
2015,08,22,03,29,13.90
2015,08,22,03,30,13.90
2015,08,22,03,31,14.00
2015,08,22,03,32,14.00
2015,08,22,03,33,14.00
2015,08,22,03,34,14.10
2015,08,22,03,35,14.10
2015,08,22,03,36,14.10
2015,08,22,03,37,14.10
2015,08,22,03,38,14.20
2015,08,22,03,39,14.20
2015,08,22,03,40,14.20
2015,08,22,03,41,14.20
2015,08,22,03,42,14.20
2015,08,22,03,43,14.20
2015,08,22,03,44,14.20
2015,08,22,03,45,14.20
2015,08,22,03,46,14.20
2015,08,22,03,47,14.30
2015,08,22,03,48,14.30
2015,08,22,03,49,14.30
2015,08,22,03,50,14.30
2015,08,22,03,51,14.30
2015,08,22,03,52,14.40
2015,08,22,03,53,14.40
2015,08,22,03,54,14.40
2015,08,22,03,55,14.40
2015,08,22,03,56,14.40
2015,08,22,03,57,14.40
2015,08,22,03,58,14.40
2015,08,22,03,59,14.40
2015,08,22,04,00,14.40
2015,08,22,04,01,14.40
2015,08,22,04,02,14.40
2015,08,22,04,03,14.40
2015,08,22,04,04,14.40
2015,08,22,04,05,14.40
2015,08,22,04,06,14.40
2015,08,22,04,07,14.40
2015,08,22,04,08,14.40
2015,08,22,04,09,14.40
2015,08,22,04,10,14.40
2015,08,22,04,11,14.40
2015,08,22,04,12,14.40
2015,08,22,04,13,14.40
2015,08,22,04,14,14.40
2015,08,22,04,15,14.40
2015,08,22,04,16,14.40
2015,08,22,04,17,14.40
2015,08,22,04,18,14.40
2015,08,22,04,19,14.40
2015,08,22,04,20,14.40
2015,08,22,04,21,14.40
2015,08,22,04,22,14.40
2015,08,22,04,23,14.40
2015,08,22,04,24,14.40
2015,08,22,04,25,14.40
2015,08,22,04,26,14.40
2015,08,22,04,27,14.40
2015,08,22,04,28,14.40
2015,08,22,04,29,14.30
2015,08,22,04,30,14.30
2015,08,22,04,31,14.30
2015,08,22,04,32,14.30
2015,08,22,04,33,14.30
2015,08,22,04,34,14.30
2015,08,22,04,35,14.30
2015,08,22,04,36,14.30
2015,08,22,04,37,14.30
2015,08,22,04,38,14.30
2015,08,22,04,39,14.30
2015,08,22,04,40,14.20
2015,08,22,04,41,14.20
2015,08,22,04,42,14.20
2015,08,22,04,43,14.20
2015,08,22,04,44,14.20
2015,08,22,04,45,14.20
2015,08,22,04,46,14.20
2015,08,22,04,47,14.20
2015,08,22,04,48,14.20
2015,08,22,04,49,14.10
2015,08,22,04,50,14.10
2015,08,22,04,51,14.10
2015,08,22,04,52,14.10
2015,08,22,04,53,14.10
2015,08,22,04,54,14.10
2015,08,22,04,55,14.10
2015,08,22,04,56,14.10
2015,08,22,04,57,14.10
2015,08,22,04,58,14.10
2015,08,22,04,59,14.10
2015,08,22,05,00,14.10
2015,08,22,05,01,14.00
2015,08,22,05,02,14.00
2015,08,22,05,03,14.00
2015,08,22,05,04,14.00
2015,08,22,05,05,14.00
2015,08,22,05,06,14.00
2015,08,22,05,07,14.00
2015,08,22,05,08,14.00
2015,08,22,05,09,14.00
2015,08,22,05,10,13.90
2015,08,22,05,11,13.90
2015,08,22,05,12,13.90
2015,08,22,05,13,13.90
2015,08,22,05,14,13.90
2015,08,22,05,15,13.80
2015,08,22,05,16,13.80
2015,08,22,05,17,13.80
2015,08,22,05,18,13.80
2015,08,22,05,19,13.80
2015,08,22,05,20,13.80
2015,08,22,05,21,13.70
2015,08,22,05,22,13.70
2015,08,22,05,23,13.70
2015,08,22,05,24,13.70
2015,08,22,05,25,13.70
2015,08,22,05,26,13.70
2015,08,22,05,27,13.70
2015,08,22,05,28,13.70
2015,08,22,05,29,13.80
2015,08,22,05,30,13.80
2015,08,22,05,31,13.80
2015,08,22,05,32,13.80
2015,08,22,05,33,13.80
2015,08,22,05,34,13.80
2015,08,22,05,35,13.80
2015,08,22,05,36,13.80
2015,08,22,05,37,13.80
2015,08,22,05,38,13.90
2015,08,22,05,39,13.90
2015,08,22,05,40,13.90
2015,08,22,05,41,14.00
2015,08,22,05,42,14.00
2015,08,22,05,43,14.10
2015,08,22,05,44,14.10
2015,08,22,05,45,14.10
2015,08,22,05,46,14.10
2015,08,22,05,47,14.10
2015,08,22,05,48,14.10
2015,08,22,05,49,14.10
2015,08,22,05,50,14.10
2015,08,22,05,51,14.10
2015,08,22,05,52,14.10
2015,08,22,05,53,14.10
2015,08,22,05,54,14.10
2015,08,22,05,55,14.10
2015,08,22,05,56,14.10
2015,08,22,05,57,14.10
2015,08,22,05,58,14.10
2015,08,22,05,59,14.10
2015,08,22,06,00,14.10
2015,08,22,06,01,14.10
2015,08,22,06,02,14.10
2015,08,22,06,03,14.20
2015,08,22,06,04,14.20
2015,08,22,06,05,14.20
2015,08,22,06,06,14.20
2015,08,22,06,07,14.20
2015,08,22,06,08,14.20
2015,08,22,06,09,14.20
2015,08,22,06,10,14.20
2015,08,22,06,11,14.20
2015,08,22,06,12,14.10
2015,08,22,06,13,14.10
2015,08,22,06,14,14.10
2015,08,22,06,15,14.10
2015,08,22,06,16,14.10
2015,08,22,06,17,14.10
2015,08,22,06,18,14.00
2015,08,22,06,19,14.00
2015,08,22,06,20,14.00
2015,08,22,06,21,14.00
2015,08,22,06,22,14.00
2015,08,22,06,23,13.90
2015,08,22,06,24,13.90
2015,08,22,06,25,13.90
2015,08,22,06,26,13.90
2015,08,22,06,27,13.90
2015,08,22,06,28,13.90
2015,08,22,06,29,13.90
2015,08,22,06,30,13.90
2015,08,22,06,31,13.90
2015,08,22,06,32,13.90
2015,08,22,06,33,13.90
2015,08,22,06,34,13.80
2015,08,22,06,35,13.80
2015,08,22,06,36,13.80
2015,08,22,06,37,13.80
2015,08,22,06,38,13.90
2015,08,22,06,39,13.90
2015,08,22,06,40,13.80
2015,08,22,06,41,13.90
2015,08,22,06,42,13.90
2015,08,22,06,43,13.90
2015,08,22,06,44,13.90
2015,08,22,06,45,13.90
2015,08,22,06,46,13.90
2015,08,22,06,47,13.90
2015,08,22,06,48,13.90
2015,08,22,06,49,13.90
2015,08,22,06,50,13.90
2015,08,22,06,51,13.90
2015,08,22,06,52,13.90
2015,08,22,06,53,14.00
2015,08,22,06,54,14.00
2015,08,22,06,55,14.10
2015,08,22,06,56,14.10
2015,08,22,06,57,14.10
2015,08,22,06,58,14.10
2015,08,22,06,59,14.10
2015,08,22,07,00,14.20
2015,08,22,07,01,14.20
2015,08,22,07,02,14.20
2015,08,22,07,03,14.20
2015,08,22,07,04,14.30
2015,08,22,07,05,14.30
2015,08,22,07,06,14.30
2015,08,22,07,07,14.30
2015,08,22,07,08,14.30
2015,08,22,07,09,14.30
2015,08,22,07,10,14.30
2015,08,22,07,11,14.30
2015,08,22,07,12,14.30
2015,08,22,07,13,14.40
2015,08,22,07,14,14.40
2015,08,22,07,15,14.40
2015,08,22,07,16,14.40
2015,08,22,07,17,14.40
2015,08,22,07,18,14.40
2015,08,22,07,19,14.40
2015,08,22,07,20,14.40
2015,08,22,07,21,14.40
2015,08,22,07,22,14.40
2015,08,22,07,23,14.40
2015,08,22,07,24,14.40
2015,08,22,07,25,14.40
2015,08,22,07,26,14.40
2015,08,22,07,27,14.40
2015,08,22,07,28,14.40
2015,08,22,07,29,14.40
2015,08,22,07,30,14.40
2015,08,22,07,31,14.40
2015,08,22,07,32,14.40
2015,08,22,07,33,14.40
2015,08,22,07,34,14.40
2015,08,22,07,35,14.40
2015,08,22,07,36,14.40
2015,08,22,07,37,14.40
2015,08,22,07,38,14.40
2015,08,22,07,39,14.40
2015,08,22,07,40,14.40
2015,08,22,07,41,14.30
2015,08,22,07,42,14.30
2015,08,22,07,43,14.40
2015,08,22,07,44,14.40
2015,08,22,07,45,14.30
2015,08,22,07,46,14.30
2015,08,22,07,47,14.30
2015,08,22,07,48,14.30
2015,08,22,07,49,14.30
2015,08,22,07,50,14.30
2015,08,22,07,51,14.30
2015,08,22,07,52,14.30
2015,08,22,07,53,14.40
2015,08,22,07,54,14.40
2015,08,22,07,55,14.40
2015,08,22,07,56,14.40
2015,08,22,07,57,14.40
2015,08,22,07,58,14.40
2015,08,22,07,59,14.40
2015,08,22,08,00,14.40
2015,08,22,08,01,14.40
2015,08,22,08,02,14.50
2015,08,22,08,03,14.50
2015,08,22,08,04,14.50
2015,08,22,08,05,14.50
2015,08,22,08,06,14.50
2015,08,22,08,07,14.50
2015,08,22,08,08,14.60
2015,08,22,08,09,14.60
2015,08,22,08,10,14.60
2015,08,22,08,11,14.60
2015,08,22,08,12,14.60
2015,08,22,08,13,14.60
2015,08,22,08,14,14.60
2015,08,22,08,15,14.70
2015,08,22,08,16,14.70
2015,08,22,08,17,14.70
2015,08,22,08,18,14.80
2015,08,22,08,19,14.80
2015,08,22,08,20,14.90
2015,08,22,08,21,14.90
2015,08,22,08,22,15.00
2015,08,22,08,23,15.10
2015,08,22,08,24,15.10
2015,08,22,08,25,15.20
2015,08,22,08,26,15.30
2015,08,22,08,27,15.40
2015,08,22,08,28,15.40
2015,08,22,08,29,15.50
2015,08,22,08,30,15.60
2015,08,22,08,31,15.70
2015,08,22,08,32,15.70
2015,08,22,08,33,15.80
2015,08,22,08,34,15.80
2015,08,22,08,35,15.90
2015,08,22,08,36,15.90
2015,08,22,08,37,15.90
2015,08,22,08,38,16.00
2015,08,22,08,39,16.00
2015,08,22,08,40,16.10
2015,08,22,08,41,16.20
2015,08,22,08,42,16.20
2015,08,22,08,43,16.20
2015,08,22,08,44,16.30
2015,08,22,08,45,16.30
2015,08,22,08,46,16.40
2015,08,22,08,47,16.40
2015,08,22,08,48,16.40
2015,08,22,08,49,16.50
2015,08,22,08,50,16.50
2015,08,22,08,51,16.60
2015,08,22,08,52,16.60
2015,08,22,08,53,16.60
2015,08,22,08,54,16.70
2015,08,22,08,55,16.60
2015,08,22,08,56,16.60
2015,08,22,08,57,16.70
2015,08,22,08,58,16.70
2015,08,22,08,59,16.70
2015,08,22,09,00,16.70
2015,08,22,09,01,16.70
2015,08,22,09,02,16.80
2015,08,22,09,03,16.80
2015,08,22,09,04,16.80
2015,08,22,09,05,16.80
2015,08,22,09,06,16.80
2015,08,22,09,07,16.90
2015,08,22,09,08,16.90
2015,08,22,09,09,16.90
2015,08,22,09,10,17.00
2015,08,22,09,11,17.00
2015,08,22,09,12,17.10
2015,08,22,09,13,17.20
2015,08,22,09,14,17.20
2015,08,22,09,15,17.20
2015,08,22,09,16,17.30
2015,08,22,09,17,17.30
2015,08,22,09,18,17.30
2015,08,22,09,19,17.30
2015,08,22,09,20,17.40
2015,08,22,09,21,17.40
2015,08,22,09,22,17.40
2015,08,22,09,23,17.40
2015,08,22,09,24,17.40
2015,08,22,09,25,17.50
2015,08,22,09,26,17.50
2015,08,22,09,27,17.50
2015,08,22,09,28,17.60
2015,08,22,09,29,17.60
2015,08,22,09,30,17.60
2015,08,22,09,31,17.60
2015,08,22,09,32,17.60
2015,08,22,09,33,17.60
2015,08,22,09,34,17.70
2015,08,22,09,35,17.70
2015,08,22,09,36,17.70
2015,08,22,09,37,17.70
2015,08,22,09,38,17.70
2015,08,22,09,39,17.80
2015,08,22,09,40,17.80
2015,08,22,09,41,17.80
2015,08,22,09,42,17.80
2015,08,22,09,43,17.80
2015,08,22,09,44,17.90
2015,08,22,09,45,17.90
2015,08,22,09,46,18.00
2015,08,22,09,47,18.00
2015,08,22,09,48,18.10
2015,08,22,09,49,18.20
2015,08,22,09,50,18.20
2015,08,22,09,51,18.20
2015,08,22,09,52,18.30
2015,08,22,09,53,18.30
2015,08,22,09,54,18.30
2015,08,22,09,55,18.40
2015,08,22,09,56,18.40
2015,08,22,09,57,18.40
2015,08,22,09,58,18.40
2015,08,22,09,59,18.40
2015,08,22,10,00,18.40
2015,08,22,10,01,18.40
2015,08,22,10,02,18.40
2015,08,22,10,03,18.50
2015,08,22,10,04,18.50
2015,08,22,10,05,18.60
2015,08,22,10,06,18.60
2015,08,22,10,07,18.70
2015,08,22,10,08,18.70
2015,08,22,10,09,18.80
2015,08,22,10,10,18.80
2015,08,22,10,11,18.90
2015,08,22,10,12,18.90
2015,08,22,10,13,19.00
2015,08,22,10,14,19.00
2015,08,22,10,15,19.00
2015,08,22,10,16,19.00
2015,08,22,10,17,19.10
2015,08,22,10,18,19.10
2015,08,22,10,19,19.10
2015,08,22,10,20,19.10
2015,08,22,10,21,19.20
2015,08,22,10,22,19.20
2015,08,22,10,23,19.20
2015,08,22,10,24,19.20
2015,08,22,10,25,19.20
2015,08,22,10,26,19.30
2015,08,22,10,27,19.30
2015,08,22,10,28,19.40
2015,08,22,10,29,19.40
2015,08,22,10,30,19.40
2015,08,22,10,31,19.50
2015,08,22,10,32,19.50
2015,08,22,10,33,19.50
2015,08,22,10,34,19.50
2015,08,22,10,35,19.60
2015,08,22,10,36,19.60
2015,08,22,10,37,19.50
2015,08,22,10,38,19.50
2015,08,22,10,39,19.50
2015,08,22,10,40,19.60
2015,08,22,10,41,19.60
2015,08,22,10,42,19.60
2015,08,22,10,43,19.60
2015,08,22,10,44,19.60
2015,08,22,10,45,19.60
2015,08,22,10,46,19.60
2015,08,22,10,47,19.70
2015,08,22,10,48,19.70
2015,08,22,10,49,19.70
2015,08,22,10,50,19.80
2015,08,22,10,51,19.80
2015,08,22,10,52,19.90
2015,08,22,10,53,20.00
2015,08,22,10,54,20.00
2015,08,22,10,55,20.10
2015,08,22,10,56,20.20
2015,08,22,10,57,20.20
2015,08,22,10,58,20.10
2015,08,22,10,59,20.10
2015,08,22,11,00,20.10
2015,08,22,11,01,20.10
2015,08,22,11,02,20.20
2015,08,22,11,03,20.20
2015,08,22,11,04,20.20
2015,08,22,11,05,20.20
2015,08,22,11,06,20.20
2015,08,22,11,07,20.30
2015,08,22,11,08,20.30
2015,08,22,11,09,20.40
2015,08,22,11,10,20.40
2015,08,22,11,11,20.30
2015,08,22,11,12,20.30
2015,08,22,11,13,20.30
2015,08,22,11,14,20.30
2015,08,22,11,15,20.30
2015,08,22,11,16,20.40
2015,08,22,11,17,20.40
2015,08,22,11,18,20.50
2015,08,22,11,19,20.60
2015,08,22,11,20,20.70
2015,08,22,11,21,20.80
2015,08,22,11,22,20.90
2015,08,22,11,23,20.90
2015,08,22,11,24,21.00
2015,08,22,11,25,21.10
2015,08,22,11,26,21.10
2015,08,22,11,27,21.20
2015,08,22,11,28,21.20
2015,08,22,11,29,21.30
2015,08,22,11,30,21.30
2015,08,22,11,31,21.40
2015,08,22,11,32,21.40
2015,08,22,11,33,21.50
2015,08,22,11,34,21.60
2015,08,22,11,35,21.70
2015,08,22,11,36,21.70
2015,08,22,11,37,21.80
2015,08,22,11,38,21.90
2015,08,22,11,39,22.00
2015,08,22,11,40,22.00
2015,08,22,11,41,22.00
2015,08,22,11,42,22.10
2015,08,22,11,43,22.10
2015,08,22,11,44,22.20
2015,08,22,11,45,22.20
2015,08,22,11,46,22.20
2015,08,22,11,47,22.20
2015,08,22,11,48,22.30
2015,08,22,11,49,22.30
2015,08,22,11,50,22.30
2015,08,22,11,51,22.30
2015,08,22,11,52,22.40
2015,08,22,11,53,22.40
2015,08,22,11,54,22.40
2015,08,22,11,55,22.40
2015,08,22,11,56,22.50
2015,08,22,11,57,22.50
2015,08,22,11,58,22.50
2015,08,22,11,59,22.50
2015,08,22,12,00,22.50
2015,08,22,12,01,22.50
2015,08,22,12,02,22.50
2015,08,22,12,03,22.40
2015,08,22,12,04,22.40
2015,08,22,12,05,22.30
2015,08,22,12,06,22.30
2015,08,22,12,07,22.30
2015,08,22,12,08,22.30
2015,08,22,12,09,22.30
2015,08,22,12,10,22.30
2015,08,22,12,11,22.30
2015,08,22,12,12,22.30
2015,08,22,12,13,22.40
2015,08,22,12,14,22.40
2015,08,22,12,15,22.50
2015,08,22,12,16,22.60
2015,08,22,12,17,22.60
2015,08,22,12,18,22.70
2015,08,22,12,19,22.70
2015,08,22,12,20,22.80
2015,08,22,12,21,22.80
2015,08,22,12,22,22.80
2015,08,22,12,23,22.90
2015,08,22,12,24,23.00
2015,08,22,12,25,23.00
2015,08,22,12,26,23.10
2015,08,22,12,27,23.10
2015,08,22,12,28,23.10
2015,08,22,12,29,23.10
2015,08,22,12,30,23.10
2015,08,22,12,31,23.10
2015,08,22,12,32,23.10
2015,08,22,12,33,23.10
2015,08,22,12,34,23.20
2015,08,22,12,35,23.20
2015,08,22,12,36,23.20
2015,08,22,12,37,23.20
2015,08,22,12,38,23.20
2015,08,22,12,39,23.20
2015,08,22,12,40,23.10
2015,08,22,12,41,23.10
2015,08,22,12,42,23.10
2015,08,22,12,43,23.10
2015,08,22,12,44,23.10
2015,08,22,12,45,23.10
2015,08,22,12,46,23.20
2015,08,22,12,47,23.20
2015,08,22,12,48,23.20
2015,08,22,12,49,23.30
2015,08,22,12,50,23.30
2015,08,22,12,51,23.40
2015,08,22,12,52,23.40
2015,08,22,12,53,23.50
2015,08,22,12,54,23.50
2015,08,22,12,55,23.60
2015,08,22,12,56,23.60
2015,08,22,12,57,23.50
2015,08,22,12,58,23.40
2015,08,22,12,59,23.30
2015,08,22,13,00,23.30
2015,08,22,13,01,23.30
2015,08,22,13,02,23.30
2015,08,22,13,03,23.20
2015,08,22,13,04,23.20
2015,08,22,13,05,23.20
2015,08,22,13,06,23.20
2015,08,22,13,07,23.10
2015,08,22,13,08,23.20
2015,08,22,13,09,23.20
2015,08,22,13,10,23.20
2015,08,22,13,11,23.20
2015,08,22,13,12,23.10
2015,08,22,13,13,23.20
2015,08,22,13,14,23.20
2015,08,22,13,15,23.20
2015,08,22,13,16,23.20
2015,08,22,13,17,23.20
2015,08,22,13,18,23.30
2015,08,22,13,19,23.30
2015,08,22,13,20,23.40
2015,08,22,13,21,23.40
2015,08,22,13,22,23.50
2015,08,22,13,23,23.50
2015,08,22,13,24,23.60
2015,08,22,13,25,23.60
2015,08,22,13,26,23.60
2015,08,22,13,27,23.60
2015,08,22,13,28,23.70
2015,08,22,13,29,23.70
2015,08,22,13,30,23.70
2015,08,22,13,31,23.80
2015,08,22,13,32,23.80
2015,08,22,13,33,23.80
2015,08,22,13,34,23.90
2015,08,22,13,35,23.90
2015,08,22,13,36,24.00
2015,08,22,13,37,24.00
2015,08,22,13,38,24.00
2015,08,22,13,39,23.90
2015,08,22,13,40,23.90
2015,08,22,13,41,23.90
2015,08,22,13,42,23.90
2015,08,22,13,43,23.90
2015,08,22,13,44,23.90
2015,08,22,13,45,23.90
2015,08,22,13,46,24.00
2015,08,22,13,47,24.10
2015,08,22,13,48,24.10
2015,08,22,13,49,24.20
2015,08,22,13,50,24.20
2015,08,22,13,51,24.20
2015,08,22,13,52,24.10
2015,08,22,13,53,24.10
2015,08,22,13,54,24.10
2015,08,22,13,55,24.10
2015,08,22,13,56,24.10
2015,08,22,13,57,24.10
2015,08,22,13,58,24.20
2015,08,22,13,59,24.20
2015,08,22,14,00,24.20
2015,08,22,14,01,24.30
2015,08,22,14,02,24.30
2015,08,22,14,03,24.30
2015,08,22,14,04,24.40
2015,08,22,14,05,24.40
2015,08,22,14,06,24.50
2015,08,22,14,07,24.60
2015,08,22,14,08,24.60
2015,08,22,14,09,24.60
2015,08,22,14,10,24.60
2015,08,22,14,11,24.50
2015,08,22,14,12,24.50
2015,08,22,14,13,24.50
2015,08,22,14,14,24.40
2015,08,22,14,15,24.40
2015,08,22,14,16,24.40
2015,08,22,14,17,24.30
2015,08,22,14,18,24.30
2015,08,22,14,19,24.30
2015,08,22,14,20,24.30
2015,08,22,14,21,24.30
2015,08,22,14,22,24.30
2015,08,22,14,23,24.20
2015,08,22,14,24,24.20
2015,08,22,14,25,24.20
2015,08,22,14,26,24.20
2015,08,22,14,27,24.20
2015,08,22,14,28,24.20
2015,08,22,14,29,24.20
2015,08,22,14,30,24.10
2015,08,22,14,31,24.10
2015,08,22,14,32,24.10
2015,08,22,14,33,24.10
2015,08,22,14,34,24.10
2015,08,22,14,35,24.20
2015,08,22,14,36,24.20
2015,08,22,14,37,24.20
2015,08,22,14,38,24.20
2015,08,22,14,39,24.10
2015,08,22,14,40,24.10
2015,08,22,14,41,24.00
2015,08,22,14,42,24.00
2015,08,22,14,43,23.90
2015,08,22,14,44,24.00
2015,08,22,14,45,24.00
2015,08,22,14,46,24.10
2015,08,22,14,47,24.10
2015,08,22,14,48,24.10
2015,08,22,14,49,24.10
2015,08,22,14,50,24.10
2015,08,22,14,51,24.20
2015,08,22,14,52,24.20
2015,08,22,14,53,24.30
2015,08,22,14,54,24.30
2015,08,22,14,55,24.30
2015,08,22,14,56,24.30
2015,08,22,14,57,24.40
2015,08,22,14,58,24.40
2015,08,22,14,59,24.40
2015,08,22,15,00,24.50
2015,08,22,15,01,24.60
2015,08,22,15,02,24.60
2015,08,22,15,03,24.70
2015,08,22,15,04,24.70
2015,08,22,15,05,24.70
2015,08,22,15,06,24.70
2015,08,22,15,07,24.70
2015,08,22,15,08,24.80
2015,08,22,15,09,24.80
2015,08,22,15,10,24.80
2015,08,22,15,11,24.80
2015,08,22,15,12,24.70
2015,08,22,15,13,24.70
2015,08,22,15,14,24.70
2015,08,22,15,15,24.70
2015,08,22,15,16,24.60
2015,08,22,15,17,24.60
2015,08,22,15,18,24.50
2015,08,22,15,19,24.50
2015,08,22,15,20,24.40
2015,08,22,15,21,24.40
2015,08,22,15,22,24.40
2015,08,22,15,23,24.50
2015,08,22,15,24,24.50
2015,08,22,15,25,24.60
2015,08,22,15,26,24.70
2015,08,22,15,27,24.70
2015,08,22,15,28,24.70
2015,08,22,15,29,24.70
2015,08,22,15,30,24.70
2015,08,22,15,31,24.70
2015,08,22,15,32,24.80
2015,08,22,15,33,24.80
2015,08,22,15,34,24.80
2015,08,22,15,35,24.90
2015,08,22,15,36,24.90
2015,08,22,15,37,25.00
2015,08,22,15,38,25.00
2015,08,22,15,39,25.00
2015,08,22,15,40,25.00
2015,08,22,15,41,25.00
2015,08,22,15,42,25.00
2015,08,22,15,43,25.10
2015,08,22,15,44,25.10
2015,08,22,15,45,25.10
2015,08,22,15,46,25.10
2015,08,22,15,47,25.20
2015,08,22,15,48,25.20
2015,08,22,15,49,25.20
2015,08,22,15,50,25.20
2015,08,22,15,51,25.20
2015,08,22,15,52,25.20
2015,08,22,15,53,25.20
2015,08,22,15,54,25.20
2015,08,22,15,55,25.20
2015,08,22,15,56,25.20
2015,08,22,15,57,25.30
2015,08,22,15,58,25.30
2015,08,22,15,59,25.30
2015,08,22,16,00,25.20
2015,08,22,16,01,25.20
2015,08,22,16,02,25.20
2015,08,22,16,03,25.10
2015,08,22,16,04,25.10
2015,08,22,16,05,25.10
2015,08,22,16,06,25.10
2015,08,22,16,07,25.10
2015,08,22,16,08,25.20
2015,08,22,16,09,25.20
2015,08,22,16,10,25.20
2015,08,22,16,11,25.20
2015,08,22,16,12,25.20
2015,08,22,16,13,25.20
2015,08,22,16,14,25.20
2015,08,22,16,15,25.20
2015,08,22,16,16,25.20
2015,08,22,16,17,25.10
2015,08,22,16,18,25.10
2015,08,22,16,19,25.10
2015,08,22,16,20,25.10
2015,08,22,16,21,25.20
2015,08,22,16,22,25.20
2015,08,22,16,23,25.20
2015,08,22,16,24,25.20
2015,08,22,16,25,25.20
2015,08,22,16,26,25.30
2015,08,22,16,27,25.30
2015,08,22,16,28,25.30
2015,08,22,16,29,25.30
2015,08,22,16,30,25.30
2015,08,22,16,31,25.40
2015,08,22,16,32,25.40
2015,08,22,16,33,25.50
2015,08,22,16,34,25.50
2015,08,22,16,35,25.60
2015,08,22,16,36,25.60
2015,08,22,16,37,25.60
2015,08,22,16,38,25.60
2015,08,22,16,39,25.60
2015,08,22,16,40,25.60
2015,08,22,16,41,25.60
2015,08,22,16,42,25.60
2015,08,22,16,43,25.60
2015,08,22,16,44,25.60
2015,08,22,16,45,25.60
2015,08,22,16,46,25.60
2015,08,22,16,47,25.60
2015,08,22,16,48,25.60
2015,08,22,16,49,25.60
2015,08,22,16,50,25.60
2015,08,22,16,51,25.60
2015,08,22,16,52,25.60
2015,08,22,16,53,25.50
2015,08,22,16,54,25.50
2015,08,22,16,55,25.50
2015,08,22,16,56,25.40
2015,08,22,16,57,25.40
2015,08,22,16,58,25.40
2015,08,22,16,59,25.30
2015,08,22,17,00,25.30
2015,08,22,17,01,25.20
2015,08,22,17,02,25.20
2015,08,22,17,03,25.20
2015,08,22,17,04,25.20
2015,08,22,17,05,25.10
2015,08,22,17,06,25.20
2015,08,22,17,07,25.20
2015,08,22,17,08,25.20
2015,08,22,17,09,25.20
2015,08,22,17,10,25.20
2015,08,22,17,11,25.20
2015,08,22,17,12,25.20
2015,08,22,17,13,25.20
2015,08,22,17,14,25.20
2015,08,22,17,15,25.20
2015,08,22,17,16,25.20
2015,08,22,17,17,25.20
2015,08,22,17,18,25.20
2015,08,22,17,19,25.20